Radiation Dose at Monitoring Post of Fukushima Daini Nuclear Power Station
Date,Time,MP-1(microSv/h),MP-2(microSv/h),MP-3(microSv/h),MP-4(microSv/h),MP-5(microSv/h),MP-6(microSv/h),MP-7(microSv/h),Wind Direction,Wind Velocity(m/s),Rain
2015/01/31,00:00,0.416,0.304,0.481,0.426,0.436,0.200,0.171,north-northwest,10.2,No
2015/01/31,00:10,0.417,0.304,0.484,0.427,0.437,0.200,0.171,north-northwest,8.8,No
2015/01/31,00:20,0.417,0.305,0.485,0.427,0.438,0.200,0.170,north-northwest,8.8,No
2015/01/31,00:30,0.416,0.305,0.484,0.426,0.436,0.201,0.170,north-northwest,9.8,No
2015/01/31,00:40,0.418,0.305,0.485,0.426,0.437,0.199,0.170,north-northwest,8.2,No
2015/01/31,00:50,0.420,0.304,0.486,0.429,0.437,0.200,0.171,north-northwest,6.4,No
2015/01/31,01:00,0.419,0.304,0.486,0.428,0.438,0.199,0.171,north-northwest,7.0,No
2015/01/31,01:10,0.419,0.307,0.486,0.428,0.438,0.201,0.171,north-northwest,8.6,No
2015/01/31,01:20,0.420,0.306,0.488,0.429,0.439,0.201,0.171,north,8.7,No
2015/01/31,01:30,0.420,0.305,0.487,0.428,0.437,0.200,0.172,north-northwest,8.7,No
2015/01/31,01:40,0.421,0.306,0.487,0.428,0.438,0.201,0.172,north-northwest,8.4,No
2015/01/31,01:50,0.423,0.307,0.488,0.430,0.439,0.200,0.172,north,10.1,No
2015/01/31,02:00,0.422,0.306,0.489,0.431,0.439,0.201,0.172,north,9.8,No
2015/01/31,02:10,0.423,0.305,0.489,0.431,0.440,0.202,0.172,north,9.1,No
2015/01/31,02:20,0.424,0.307,0.489,0.431,0.441,0.201,0.172,north,7.4,No
2015/01/31,02:30,0.424,0.307,0.489,0.430,0.440,0.200,0.172,north,7.0,No
2015/01/31,02:40,0.422,0.307,0.490,0.432,0.439,0.201,0.172,north,5.5,No
2015/01/31,02:50,0.423,0.308,0.490,0.430,0.440,0.202,0.171,north,6.1,No
2015/01/31,03:00,0.424,0.307,0.490,0.433,0.441,0.201,0.173,north,5.6,No
2015/01/31,03:10,0.425,0.308,0.489,0.432,0.441,0.202,0.172,north,4.3,No
2015/01/31,03:20,0.424,0.308,0.491,0.433,0.440,0.201,0.172,north-northeast,4.0,No
2015/01/31,03:30,0.424,0.308,0.493,0.434,0.442,0.202,0.174,north-northeast,1.8,No
2015/01/31,03:40,0.425,0.308,0.492,0.434,0.442,0.203,0.172,north-northeast,3.0,No
2015/01/31,03:50,0.426,0.308,0.492,0.433,0.442,0.203,0.173,north-northeast,5.1,No
2015/01/31,04:00,0.427,0.308,0.492,0.432,0.442,0.202,0.173,north-northeast,5.0,No
2015/01/31,04:10,0.425,0.308,0.492,0.433,0.440,0.203,0.173,northeast,6.2,No
2015/01/31,04:20,0.425,0.309,0.492,0.434,0.442,0.202,0.173,northeast,5.3,No
2015/01/31,04:30,0.427,0.309,0.493,0.433,0.440,0.202,0.173,northeast,4.2,No
2015/01/31,04:40,0.428,0.309,0.495,0.434,0.442,0.203,0.174,north,2.3,No
2015/01/31,04:50,0.427,0.308,0.494,0.435,0.443,0.202,0.173,northeast,2.2,No
2015/01/31,05:00,0.426,0.309,0.493,0.436,0.444,0.202,0.173,north,2.9,No
2015/01/31,05:10,0.427,0.309,0.492,0.435,0.442,0.203,0.174,northwest,5.2,No
2015/01/31,05:20,0.427,0.308,0.495,0.435,0.443,0.203,0.173,northwest,2.5,No
2015/01/31,05:30,0.427,0.310,0.496,0.434,0.440,0.204,0.173,northwest,4.1,No
2015/01/31,05:40,0.428,0.309,0.495,0.437,0.443,0.203,0.173,north-northwest,4.5,No
2015/01/31,05:50,0.428,0.310,0.493,0.436,0.444,0.203,0.174,north,3.4,No
2015/01/31,06:00,0.429,0.310,0.494,0.436,0.442,0.203,0.174,north-northeast,3.5,No
2015/01/31,06:10,0.429,0.309,0.496,0.435,0.442,0.202,0.174,north,3.9,No
2015/01/31,06:20,0.428,0.308,0.496,0.436,0.444,0.202,0.174,west,4.6,No
2015/01/31,06:30,0.429,0.310,0.495,0.437,0.443,0.205,0.174,west,13.0,No
2015/01/31,06:40,0.431,0.310,0.497,0.436,0.443,0.203,0.174,west-northwest,14.8,No
2015/01/31,06:50,0.430,0.310,0.496,0.437,0.443,0.203,0.174,west-northwest,12.8,No
2015/01/31,07:00,0.431,0.312,0.496,0.435,0.444,0.203,0.175,west-northwest,9.0,No
2015/01/31,07:10,0.432,0.311,0.497,0.436,0.442,0.203,0.174,west-northwest,8.8,No
2015/01/31,07:20,0.431,0.310,0.498,0.438,0.444,0.203,0.174,west-northwest,5.6,No
2015/01/31,07:30,0.433,0.312,0.496,0.437,0.443,0.203,0.174,west-northwest,5.1,No
2015/01/31,07:40,0.433,0.311,0.498,0.438,0.443,0.203,0.175,west,3.5,No
2015/01/31,07:50,0.432,0.310,0.497,0.437,0.444,0.204,0.174,west,2.1,No
2015/01/31,08:00,0.431,0.311,0.496,0.438,0.443,0.203,0.175,west-northwest,3.2,No
2015/01/31,08:10,0.434,0.312,0.498,0.437,0.445,0.203,0.174,west-northwest,3.7,No
2015/01/31,08:20,0.433,0.311,0.499,0.436,0.444,0.204,0.174,west-northwest,4.8,No
2015/01/31,08:30,0.433,0.312,0.498,0.439,0.444,0.203,0.173,west,9.0,No
2015/01/31,08:40,0.435,0.311,0.498,0.438,0.444,0.203,0.174,west,10.8,No
2015/01/31,08:50,0.435,0.312,0.497,0.440,0.445,0.204,0.174,west,12.0,No
2015/01/31,09:00,0.434,0.311,0.499,0.440,0.445,0.204,0.174,west,10.8,No
2015/01/31,09:10,0.434,0.312,0.499,0.441,0.446,0.204,0.176,west-northwest,9.8,No
2015/01/31,09:20,0.436,0.311,0.499,0.441,0.445,0.204,0.176,west-northwest,8.4,No
2015/01/31,09:30,0.436,0.312,0.499,0.440,0.446,0.204,0.178,west,8.5,No
2015/01/31,09:40,0.436,0.313,0.501,0.440,0.444,0.205,0.177,west,8.1,No
2015/01/31,09:50,0.435,0.313,0.501,0.438,0.444,0.204,0.178,west,8.4,No
2015/01/31,10:00,0.438,0.312,0.499,0.439,0.446,0.205,0.179,west,13.4,No
2015/01/31,10:10,0.436,0.313,0.501,0.440,0.445,0.206,0.179,west,13.8,No
2015/01/31,10:20,0.436,0.313,0.500,0.438,0.447,0.206,0.180,west,11.6,No
2015/01/31,10:30,0.437,0.315,0.500,0.439,0.447,0.207,0.182,west-northwest,11.9,No
2015/01/31,10:40,0.435,0.315,0.502,0.441,0.447,0.207,0.182,west,14.0,No
2015/01/31,10:50,0.437,0.314,0.502,0.441,0.446,0.207,0.183,west,10.4,Yes
2015/01/31,11:00,0.442,0.314,0.502,0.442,0.448,0.208,0.186,west-northwest,9.8,No
2015/01/31,11:10,0.438,0.316,0.502,0.443,0.449,0.208,0.186,west-northwest,9.3,No
2015/01/31,11:20,0.441,0.315,0.504,0.443,0.449,0.209,0.187,west,12.6,No
2015/01/31,11:30,0.442,0.316,0.504,0.444,0.449,0.211,0.188,west-northwest,11.2,No
2015/01/31,11:40,0.441,0.316,0.504,0.443,0.450,0.210,0.190,west-northwest,10.0,No
2015/01/31,11:50,0.444,0.316,0.505,0.446,0.451,0.211,0.191,west-northwest,6.3,No
2015/01/31,12:00,0.444,0.317,0.506,0.447,0.452,0.212,0.192,west,10.7,No
2015/01/31,12:10,0.445,0.318,0.507,0.447,0.452,0.212,0.193,west-northwest,13.1,No
2015/01/31,12:20,0.447,0.320,0.509,0.449,0.453,0.213,0.195,west-northwest,9.8,No
2015/01/31,12:30,0.447,0.318,0.511,0.449,0.452,0.214,0.195,northwest,8.1,No
2015/01/31,12:40,0.448,0.321,0.510,0.451,0.455,0.215,0.198,west-northwest,9.4,No
2015/01/31,12:50,0.451,0.320,0.512,0.452,0.454,0.216,0.197,northwest,9.0,No
2015/01/31,13:00,0.450,0.321,0.512,0.451,0.455,0.217,0.200,west-northwest,13.2,No
2015/01/31,13:10,0.452,0.322,0.514,0.453,0.454,0.216,0.201,northwest,11.3,No
2015/01/31,13:20,0.454,0.322,0.514,0.454,0.455,0.218,0.202,northwest,9.3,No
2015/01/31,13:30,0.454,0.323,0.516,0.456,0.456,0.219,0.203,northwest,9.3,No
2015/01/31,13:40,0.455,0.325,0.517,0.455,0.458,0.220,0.205,northwest,9.9,No
2015/01/31,13:50,0.459,0.325,0.518,0.457,0.458,0.221,0.204,north-northwest,5.0,No
2015/01/31,14:00,0.458,0.325,0.518,0.458,0.459,0.221,0.206,north-northwest,5.2,No
2015/01/31,14:10,0.458,0.326,0.520,0.460,0.459,0.221,0.206,northwest,4.7,No
2015/01/31,14:20,0.461,0.328,0.521,0.461,0.460,0.221,0.207,northwest,7.6,No
2015/01/31,14:30,0.459,0.325,0.522,0.461,0.461,0.222,0.208,northwest,7.5,No
2015/01/31,14:40,0.461,0.328,0.523,0.459,0.461,0.223,0.209,northwest,6.8,No
2015/01/31,14:50,0.463,0.328,0.525,0.460,0.461,0.223,0.209,northwest,5.0,No
2015/01/31,15:00,0.464,0.328,0.524,0.461,0.461,0.225,0.211,north,7.0,No
2015/01/31,15:10,0.464,0.330,0.526,0.462,0.462,0.225,0.210,north-northwest,4.4,No
2015/01/31,15:20,0.464,0.330,0.526,0.464,0.463,0.225,0.211,north-northwest,2.5,No
2015/01/31,15:30,0.465,0.329,0.529,0.465,0.463,0.226,0.212,northwest,2.8,No
2015/01/31,15:40,0.465,0.331,0.529,0.465,0.463,0.225,0.210,north,2.5,No
2015/01/31,15:50,0.465,0.331,0.529,0.467,0.463,0.227,0.213,north-northwest,4.7,No
2015/01/31,16:00,0.465,0.331,0.530,0.467,0.466,0.227,0.212,north,4.1,No
2015/01/31,16:10,0.466,0.332,0.532,0.468,0.465,0.227,0.212,north,3.4,No
2015/01/31,16:20,0.467,0.333,0.533,0.467,0.467,0.228,0.213,north,1.7,No
2015/01/31,16:30,0.469,0.333,0.533,0.468,0.468,0.229,0.213,north-northwest,4.0,No
2015/01/31,16:40,0.468,0.333,0.533,0.469,0.466,0.230,0.213,north,2.6,No
2015/01/31,16:50,0.468,0.334,0.535,0.470,0.466,0.230,0.214,northwest,2.8,No
2015/01/31,17:00,0.469,0.333,0.535,0.471,0.466,0.229,0.214,northwest,3.3,No
2015/01/31,17:10,0.470,0.333,0.537,0.471,0.467,0.231,0.213,northwest,4.8,No
2015/01/31,17:20,0.470,0.334,0.535,0.471,0.467,0.231,0.214,northwest,5.5,No
2015/01/31,17:30,0.470,0.333,0.535,0.472,0.468,0.231,0.213,north-northwest,4.2,No
2015/01/31,17:40,0.472,0.334,0.536,0.474,0.470,0.231,0.214,north-northwest,4.3,No
2015/01/31,17:50,0.472,0.334,0.537,0.473,0.468,0.231,0.213,north-northwest,4.7,No
2015/01/31,18:00,0.472,0.335,0.538,0.473,0.468,0.231,0.213,north-northwest,4.9,No
2015/01/31,18:10,0.470,0.335,0.538,0.474,0.469,0.232,0.215,north-northwest,6.4,No
2015/01/31,18:20,0.473,0.334,0.539,0.474,0.470,0.232,0.215,northwest,5.6,No
2015/01/31,18:30,0.472,0.335,0.540,0.473,0.470,0.231,0.213,north-northwest,6.4,No
2015/01/31,18:40,0.471,0.335,0.539,0.475,0.469,0.233,0.215,north-northwest,4.0,No
2015/01/31,18:50,0.471,0.334,0.538,0.475,0.470,0.232,0.214,north-northwest,5.1,No
2015/01/31,19:00,0.473,0.336,0.540,0.476,0.470,0.234,0.214,northwest,7.1,No
2015/01/31,19:10,0.473,0.334,0.540,0.475,0.471,0.233,0.215,northwest,7.3,No
2015/01/31,19:20,0.473,0.335,0.539,0.475,0.471,0.232,0.215,northwest,5.6,No
2015/01/31,19:30,0.474,0.336,0.541,0.476,0.471,0.234,0.215,northwest,6.8,No
2015/01/31,19:40,0.475,0.337,0.540,0.476,0.469,0.232,0.215,northwest,5.6,No
2015/01/31,19:50,0.475,0.337,0.541,0.477,0.469,0.234,0.215,northwest,7.0,No
2015/01/31,20:00,0.475,0.335,0.541,0.477,0.471,0.233,0.215,west-northwest,8.6,No
2015/01/31,20:10,0.473,0.336,0.541,0.478,0.472,0.234,0.214,west-northwest,8.1,No
2015/01/31,20:20,0.475,0.336,0.541,0.476,0.472,0.233,0.214,northwest,5.4,No
2015/01/31,20:30,0.473,0.337,0.543,0.478,0.472,0.234,0.216,north-northwest,4.6,No
2015/01/31,20:40,0.475,0.337,0.543,0.478,0.472,0.235,0.216,north-northwest,6.0,No
2015/01/31,20:50,0.473,0.338,0.544,0.478,0.472,0.234,0.215,northwest,3.9,No
2015/01/31,21:00,0.476,0.336,0.542,0.477,0.473,0.235,0.215,north-northwest,4.9,No
2015/01/31,21:10,0.475,0.336,0.543,0.478,0.473,0.234,0.218,north-northwest,6.1,No
2015/01/31,21:20,0.475,0.338,0.541,0.477,0.473,0.234,0.215,north-northwest,5.7,No
2015/01/31,21:30,0.475,0.337,0.544,0.480,0.472,0.234,0.217,west-northwest,6.5,No
2015/01/31,21:40,0.477,0.337,0.544,0.479,0.472,0.234,0.216,north-northwest,5.1,No
2015/01/31,21:50,0.477,0.337,0.545,0.480,0.473,0.235,0.216,north-northwest,5.9,No
2015/01/31,22:00,0.476,0.338,0.544,0.479,0.473,0.234,0.216,north-northwest,7.5,No
2015/01/31,22:10,0.478,0.339,0.543,0.481,0.473,0.235,0.215,north-northwest,6.5,No
2015/01/31,22:20,0.478,0.337,0.545,0.481,0.474,0.234,0.217,northwest,6.7,No
2015/01/31,22:30,0.479,0.338,0.546,0.481,0.472,0.235,0.216,north-northwest,6.6,No
2015/01/31,22:40,0.476,0.338,0.545,0.481,0.473,0.236,0.216,north-northwest,6.5,No
2015/01/31,22:50,0.477,0.339,0.546,0.479,0.472,0.234,0.216,north-northwest,8.0,No
2015/01/31,23:00,0.477,0.337,0.547,0.482,0.474,0.236,0.217,northwest,7.0,No
2015/01/31,23:10,0.477,0.338,0.548,0.482,0.474,0.236,0.216,north-northwest,5.1,No
2015/01/31,23:20,0.477,0.339,0.547,0.481,0.474,0.236,0.216,northwest,4.8,No
2015/01/31,23:30,0.478,0.337,0.546,0.481,0.474,0.233,0.216,west-northwest,8.2,No
2015/01/31,23:40,0.477,0.339,0.545,0.481,0.473,0.236,0.216,west-northwest,4.8,No
2015/01/31,23:50,0.477,0.338,0.547,0.482,0.473,0.237,0.217,west-northwest,6.8,No
